Showing default

TYVAK-0172, 46267

Orbit data source: Space-Track

TYVAK-0172, 46267 is a payload satellite owned by Echostar AU (US) in SSO that was launched on Sun, 30 Aug 2020 UTC via an FALCON 9 launch vehicle from the Air Force Eastern Test Range (AFETR). Payload-class satellites include a variety of spacecraft equipped with specific instruments for various scientific and technological missions. These include communications satellites like Starlink; space stations such as the ISS; scientific satellites like the Hubble; Earth observation satellites from companies like Planet Labs, Umbra, and HawkEye 360; GPS; miniature CubeSats for education and research; and military/defense satellites.

Loading next visibility...
Identifier
46267, 2020-059C
Orbit
SSO
Country
Flag of USUS
Related business
Manufacturer
Tyvak NSS
Mission
Operational Commercial Technology
Bus & Motor
CUBESAT 6U?, Unknown motor
Mass
11 kg wet, 11 kg dry
Launch date (UTC)
2020-08-30 (5 years ago)
Launch vehicle
FALCON 9
Launch site
Air Force Eastern Test Range (AFETR)
Object type
Payload
Rocket body
Debris
Shape & HBR
Box + 2 Pan, Unknown HBR
Radar Cross Section
0.077 m², Medium (>0.1 m² and < 1m²)

Expand to show TLE details & history
Last TLE update: 23 hours ago

TLE from 23 hours ago
0 TYVAK-0172
1 46267U 20059C   25309.61543665  .00056657  00000-0  11628-2 0  9995
2 46267  97.7350 177.3214 0002877  56.0263 304.1258 15.45838443283853
Epoch: 2025-11-05T14:46Z
TLE epoch observation values (Epoch: 2025-11-05T14:46:13.726Z)
Latitude
-0.00005°
Longitude
-89.32135°
Altitude
430.933 km
Speed
7.654 km/s
True Right ascension
11h 49m 17s
True Declination
0° 00' 00"
Sunlit
Object was in daylight at epoch
Visualization orbit readout
Latitude
Unknown
Longitude
Unknown
Altitude
Unknown
Speed
Unknown
Apparent Right ascension
Unknown
Apparent Declination
Unknown
Sunlit
N/A
Visualization observer readout
Local Sidereal Time
10:12:29
Azimuth
Unknown
Elevation
Unknown
Doppler factor
Unknown
Orbital elements
Apogee altitude
427.819 km
Perigee altitude
423.904 km
Semi-major axis
6,803.999 km
Eccentricity
0.00029
Inclination
97.735°
RAAN
177.3214°
Arg. of periapsis
56.0263°
True anomaly
304.0985°
Mean anomaly
304.1258°
Eccentric anomaly
304.11215°
Mean motion
3.8672 °/min
Orbital period
93.09 mins
BSTAR
0.0011628
Loading maneuver chart data...
Computing Atmospheric mass density...
Loading historical data...
Loading historical data...
Loading historical data...
Loading historical data...
Loading historical data...
Loading historical data...
Loading historical data...
Other satellites on launch #59 in the year 2020 (2020-08-30 UTC)

Documentation

Showing up to 5 results
|